千帆星座-117(QIANFAN-117)

导读

QIANFAN-117(NORAD编号68644)是中国千帆星座(Spacesail Constellation)组网卫星中的一颗,由上海航太科技相关单位参与研制,属于低地球轨道(LEO)商业卫星。千帆星座是上海千帆科技打造的大规模低轨商业卫星网络,旨在提供低传输延迟、高链路稳定性的空间服务。该卫星随星座批量任务发射入轨,与同批次卫星共同推进星座组网建设,服务于天地一体化网络应用,助力商业航天基础设施部署,推动我国低轨卫星互联网体系构建。

基本信息
目录编号:
68644
目录名称:
QIANFAN-117
国际标识:
2026-075J
轨道中心:
EARTH
卫星名称:
千帆星座-117
卫星全名:
千帆星座-117(QIANFAN-117)
卫星状态:
在轨 (已飞行112 天)
发射日期:
2026-04-07 UTC
国别 :
中国 (CN)
星等 :
--
轨道信息
数据来源 国际轨道数据 AOE轨道数据
星历时间 2026-07-27T20:33:56+0800
15小时前
查看轨道信息
2026-07-22T23:00:00+0800
5天前
查看轨道信息
半长轴 7446.665km 7446.671km
偏心率 0.0002337 0.000226
轨道倾角 88.992° 88.991°
近地点辐角 109.663° 108.564°
升交点赤经 316.880° 317.378°
平近点角 250.477° 200.803°
近地点 1066.787km 1066.851km
远地点 1070.269km 1070.217km
周期 106.587分钟 106.587分钟
每日圈数 13.510148 13.510132
详细信息
卫星平台:
117
覆盖范围:
全球
运营商:
上海垣信卫星科技有限公司
运营商所在国:
中国
使用方式:
暂无
卫星简介
千帆星座,也被称为“G60星链”计划,是中国版“星链”的重要组成部分,旨在打造一个由1.4万多颗低轨宽频多媒体卫星构成的庞大星座。千帆星座计划由上海垣信卫星科技有限公司负责实施,于2023年启动建设。该项目是我国第二个低轨卫星大星座,旨在通过构建庞大的卫星网络,为全球用户提供高质量的通信和宽带互联网服务。
2D轨道图
3D轨道图
轨道高度分析图
轨道倾角分析图
轨道综合分析图
查看轨道综合分析图